Time,TemperatureF,DewpointF,PressureIn,WindDirection,WindDirectionDegrees,WindSpeedMPH,WindSpeedGustMPH,Humidity,HourlyPrecipIn,Conditions,Clouds,dailyrainin,SolarRadiationWatts/m^2,SoftwareType,DateUTC
2013-05-11 00:00:00,30.0,29.0,-100.00,SW,225,0.0,-999.0,95,-99.99,,,-99.99,0.000000,,2013-05-11 05:00:00,
2013-05-11 00:42:00,30.0,29.0,-100.00,SW,225,0.0,-999.0,95,-99.99,,,-99.99,0.000000,,2013-05-11 05:42:00,
2013-05-11 00:52:00,30.0,29.0,-100.00,SW,225,0.0,-999.0,95,-99.99,,,-99.99,0.000000,,2013-05-11 05:52:00,
2013-05-11 01:00:00,30.0,29.0,-100.00,SW,225,0.0,-999.0,96,-99.99,,,-99.99,0.000000,,2013-05-11 06:00:00,
2013-05-11 01:42:00,30.0,29.0,-100.00,SW,225,0.0,-999.0,96,-99.99,,,-99.99,0.000000,,2013-05-11 06:42:00,
2013-05-11 01:52:00,30.0,29.0,-100.00,SW,225,0.0,-999.0,96,-99.99,,,-99.99,0.000000,,2013-05-11 06:52:00,
2013-05-11 02:00:00,33.0,32.0,-100.00,NW,315,0.0,-999.0,97,-99.99,,,-99.99,0.000000,,2013-05-11 07:00:00,
2013-05-11 02:42:00,33.0,32.0,-100.00,NW,315,0.0,-999.0,97,-99.99,,,-99.99,0.000000,,2013-05-11 07:42:00,
2013-05-11 02:52:00,33.0,32.0,-100.00,NW,315,0.0,-999.0,97,-99.99,,,-99.99,0.000000,,2013-05-11 07:52:00,
2013-05-11 03:00:00,34.0,33.0,-100.00,ESE,112,0.0,-999.0,97,-99.99,,,-99.99,0.000000,,2013-05-11 08:00:00,
2013-05-11 03:43:00,34.0,33.0,-100.00,ESE,112,0.0,-999.0,97,-99.99,,,-99.99,0.000000,,2013-05-11 08:43:00,
2013-05-11 03:52:00,34.0,33.0,-100.00,ESE,112,0.0,-999.0,97,-99.99,,,-99.99,0.000000,,2013-05-11 08:52:00,
2013-05-11 04:00:00,36.0,35.0,-100.00,SE,135,1.0,-999.0,97,-99.99,,,-99.99,0.000000,,2013-05-11 09:00:00,
2013-05-11 04:42:00,36.0,35.0,-100.00,SE,135,1.0,-999.0,97,-99.99,,,-99.99,0.000000,,2013-05-11 09:42:00,
2013-05-11 04:52:00,36.0,35.0,-100.00,SE,135,1.0,-999.0,97,-99.99,,,-99.99,0.000000,,2013-05-11 09:52:00,
2013-05-11 05:00:00,37.0,36.0,-100.00,SSE,157,2.0,-999.0,96,-99.99,,,-99.99,0.000000,,2013-05-11 10:00:00,
2013-05-11 05:42:00,37.0,36.0,-100.00,SSE,157,2.0,-999.0,96,-99.99,,,-99.99,0.000000,,2013-05-11 10:42:00,
2013-05-11 05:53:00,37.0,36.0,-100.00,SSE,157,2.0,-999.0,96,-99.99,,,-99.99,0.000000,,2013-05-11 10:53:00,
2013-05-11 06:00:00,38.0,37.0,-100.00,SSE,157,3.0,-999.0,95,-99.99,,,-99.99,4.640000,,2013-05-11 11:00:00,
2013-05-11 06:42:00,38.0,37.0,-100.00,SSE,157,3.0,-999.0,95,-99.99,,,-99.99,4.640000,,2013-05-11 11:42:00,
2013-05-11 06:52:00,38.0,37.0,-100.00,SSE,157,3.0,-999.0,95,-99.99,,,-99.99,4.640000,,2013-05-11 11:52:00,
2013-05-11 07:00:00,40.0,38.0,-100.00,SSE,157,3.0,-999.0,94,-99.99,,,-99.99,32.480000,,2013-05-11 12:00:00,
2013-05-11 07:42:00,40.0,38.0,-100.00,SSE,157,3.0,-999.0,94,-99.99,,,-99.99,32.480000,,2013-05-11 12:42:00,
2013-05-11 07:52:00,40.0,38.0,-100.00,SSE,157,3.0,-999.0,94,-99.99,,,-99.99,32.480000,,2013-05-11 12:52:00,
2013-05-11 08:00:00,42.0,40.0,-100.00,SSE,157,2.0,-999.0,92,-99.99,,,-99.99,96.279999,,2013-05-11 13:00:00,
2013-05-11 08:42:00,42.0,40.0,-100.00,SSE,157,2.0,-999.0,92,-99.99,,,-99.99,96.279999,,2013-05-11 13:42:00,
2013-05-11 08:52:00,42.0,40.0,-100.00,SSE,157,2.0,-999.0,92,-99.99,,,-99.99,96.279999,,2013-05-11 13:52:00,
2013-05-11 09:00:00,43.0,41.0,-100.00,SSE,157,2.0,-999.0,92,-99.99,,,-99.99,89.320000,,2013-05-11 14:00:00,
2013-05-11 09:42:00,43.0,41.0,-100.00,SSE,157,2.0,-999.0,92,-99.99,,,-99.99,89.320000,,2013-05-11 14:42:00,
2013-05-11 09:52:00,43.0,41.0,-100.00,SSE,157,2.0,-999.0,92,-99.99,,,-99.99,89.320000,,2013-05-11 14:52:00,
2013-05-11 11:00:00,36.0,34.0,-100.00,NNW,337,13.0,-999.0,93,0.12,,,-99.99,47.560001,,2013-05-11 16:00:00,
2013-05-11 11:42:00,36.0,34.0,-100.00,NNW,337,13.0,-999.0,93,0.12,,,-99.99,47.560001,,2013-05-11 16:42:00,
2013-05-11 11:53:00,36.0,34.0,-100.00,NNW,337,13.0,-999.0,93,0.12,,,-99.99,47.560001,,2013-05-11 16:53:00,
2013-05-11 12:00:00,34.0,33.0,-100.00,NNW,337,8.0,-999.0,96,0.11,,,-99.99,85.839996,,2013-05-11 17:00:00,
2013-05-11 12:42:00,34.0,33.0,-100.00,NNW,337,8.0,-999.0,96,0.11,,,-99.99,85.839996,,2013-05-11 17:42:00,
2013-05-11 12:52:00,34.0,33.0,-100.00,NNW,337,8.0,-999.0,96,0.11,,,-99.99,85.839996,,2013-05-11 17:52:00,
2013-05-11 13:00:00,40.0,37.0,-100.00,NNW,337,8.0,-999.0,91,0.01,,,-99.99,562.599976,,2013-05-11 18:00:00,
2013-05-11 13:42:00,40.0,37.0,-100.00,NNW,337,8.0,-999.0,91,0.01,,,-99.99,562.599976,,2013-05-11 18:42:00,
2013-05-11 13:52:00,40.0,37.0,-100.00,NNW,337,8.0,-999.0,91,0.01,,,-99.99,562.599976,,2013-05-11 18:52:00,
2013-05-11 14:00:00,43.0,38.0,-100.00,NNW,337,10.0,-999.0,83,0.01,,,-99.99,725.000000,,2013-05-11 19:00:00,
2013-05-11 14:42:00,43.0,38.0,-100.00,NNW,337,10.0,-999.0,83,0.01,,,-99.99,725.000000,,2013-05-11 19:42:00,
2013-05-11 14:53:00,43.0,38.0,-100.00,NNW,337,10.0,-999.0,83,0.01,,,-99.99,725.000000,,2013-05-11 19:53:00,
2013-05-11 15:00:00,46.0,34.0,-100.00,NNW,337,9.0,-999.0,64,-99.99,,,-99.99,642.640015,,2013-05-11 20:00:00,
2013-05-11 15:42:00,46.0,34.0,-100.00,NNW,337,9.0,-999.0,64,-99.99,,,-99.99,642.640015,,2013-05-11 20:42:00,
2013-05-11 15:52:00,46.0,34.0,-100.00,NNW,337,9.0,-999.0,64,-99.99,,,-99.99,642.640015,,2013-05-11 20:52:00,
2013-05-11 16:00:00,47.0,31.0,-100.00,NNW,337,8.0,-999.0,53,-99.99,,,-99.99,387.440002,,2013-05-11 21:00:00,
2013-05-11 16:43:00,47.0,31.0,-100.00,NNW,337,8.0,-999.0,53,-99.99,,,-99.99,387.440002,,2013-05-11 21:43:00,
2013-05-11 16:53:00,47.0,31.0,-100.00,NNW,337,8.0,-999.0,53,-99.99,,,-99.99,387.440002,,2013-05-11 21:53:00,
2013-05-11 17:00:00,46.0,27.0,-100.00,NW,315,9.0,-999.0,47,-99.99,,,-99.99,329.440002,,2013-05-11 22:00:00,
2013-05-11 17:43:00,46.0,27.0,-100.00,NW,315,9.0,-999.0,47,-99.99,,,-99.99,329.440002,,2013-05-11 22:43:00,
2013-05-11 17:52:00,46.0,27.0,-100.00,NW,315,9.0,-999.0,47,-99.99,,,-99.99,329.440002,,2013-05-11 22:52:00,
2013-05-11 18:00:00,46.0,26.0,-100.00,NW,315,10.0,-999.0,46,-99.99,,,-99.99,312.040009,,2013-05-11 23:00:00,
2013-05-11 18:42:00,46.0,26.0,-100.00,NW,315,10.0,-999.0,46,-99.99,,,-99.99,312.040009,,2013-05-11 23:42:00,
2013-05-11 18:52:00,46.0,26.0,-100.00,NW,315,10.0,-999.0,46,-99.99,,,-99.99,312.040009,,2013-05-11 23:52:00,
2013-05-11 20:00:00,41.0,30.0,-100.00,NW,315,10.0,-999.0,65,-99.99,,,-99.99,35.959999,,2013-05-12 01:00:00,
2013-05-11 20:42:00,41.0,30.0,-100.00,NW,315,10.0,-999.0,65,-99.99,,,-99.99,35.959999,,2013-05-12 01:42:00,
2013-05-11 20:52:00,41.0,30.0,-100.00,NW,315,10.0,-999.0,65,-99.99,,,-99.99,35.959999,,2013-05-12 01:52:00,
2013-05-11 21:00:00,39.0,30.0,-100.00,NW,315,9.0,-999.0,71,-99.99,,,-99.99,2.320000,,2013-05-12 02:00:00,
2013-05-11 21:42:00,39.0,30.0,-100.00,NW,315,9.0,-999.0,71,-99.99,,,-99.99,2.320000,,2013-05-12 02:42:00,
2013-05-11 21:52:00,39.0,30.0,-100.00,NW,315,9.0,-999.0,71,-99.99,,,-99.99,2.320000,,2013-05-12 02:52:00,
2013-05-11 22:00:00,-999.0,-99.9,-100.00,NW,315,9.0,-999.0,71,-99.99,,,-99.99,0.000000,,2013-05-12 03:00:00,
2013-05-11 22:43:00,38.0,30.0,-100.00,NW,315,9.0,-999.0,71,-99.99,,,-99.99,0.000000,,2013-05-12 03:43:00,
2013-05-11 22:53:00,38.0,30.0,-100.00,NW,315,9.0,-999.0,71,-99.99,,,-99.99,0.000000,,2013-05-12 03:53:00,
2013-05-11 23:00:00,37.0,30.0,-100.00,NW,315,10.0,-999.0,73,-99.99,,,-99.99,0.000000,,2013-05-12 04:00:00,
2013-05-11 23:43:00,37.0,30.0,-100.00,NW,315,10.0,-999.0,73,-99.99,,,-99.99,0.000000,,2013-05-12 04:43:00,
2013-05-11 23:52:00,37.0,30.0,-100.00,NW,315,10.0,-999.0,73,-99.99,,,-99.99,0.000000,,2013-05-12 04:52:00,